Date String (YYYY-MM-DD hh:mm:ss) UTC,Instrument flags,Ambient pressure (hPa),Sample flow (lpm),Bypass flow (lpm),Sample temperature (°C),Ambient temperature (°C),ASC tube jacket temperature (°C),LED temperature (°C),Box temperature (°C),Sample RH (%),Span deviation,Mass concentration (μg/m³),Mass concentration (μg/m³),Mass concentration (μg/m³)
DateTimeUTC,F1_M11,P_M11,Q1_M11,Q2_M11,T1_M11,T2_M11,T3_M11,T4_M11,T5_M11,U1_M11,ZSPAN_M11,X0_M11,X2_M11,X1_M11
2021-09-30 21:00:00,,0833.6,5.01,0.00,27.8,27.1,00.0,36.8,29.6,22.5,-001.6,0014.80,0009.65,0008.96
2021-09-30 21:01:00,,0833.6,5.00,0.00,27.8,27.1,00.0,36.8,29.7,22.5,-001.5,0014.39,0009.62,0008.97
2021-09-30 21:02:00,,0833.6,5.00,0.00,27.8,27.2,00.0,36.8,29.7,22.4,-001.3,0014.17,0009.58,0008.97
2021-09-30 21:03:00,,0833.6,5.01,0.00,27.8,27.2,00.0,36.9,29.7,22.3,-001.3,0014.71,0009.53,0008.96
2021-09-30 21:04:00,,0833.6,5.00,0.00,27.9,27.2,00.0,36.9,29.7,22.3,-001.2,0014.99,0009.53,0008.97
2021-09-30 21:05:00,,0833.6,5.00,0.00,27.9,27.3,00.0,36.9,29.8,22.2,-001.2,0015.09,0009.54,0008.98
2021-09-30 21:06:00,,0833.5,5.00,0.00,27.9,27.3,00.0,36.9,29.8,22.3,-001.2,0015.14,0009.55,0008.98
2021-09-30 21:07:00,,0833.5,5.00,0.00,27.9,27.3,00.0,36.9,29.8,22.4,-001.3,0015.03,0009.50,0008.95
2021-09-30 21:08:00,,0833.6,4.99,0.00,28.0,27.3,00.0,36.9,29.8,22.4,-001.2,0014.90,0009.49,0008.95
2021-09-30 21:09:00,,0833.5,5.00,0.00,28.0,27.4,00.0,36.9,29.9,22.2,-001.3,0014.82,0009.50,0008.96
2021-09-30 21:10:00,,0833.6,5.01,0.00,28.0,27.4,00.0,36.9,29.9,22.0,-001.2,0014.87,0009.50,0008.95
2021-09-30 21:11:00,,0833.5,5.00,0.00,28.0,27.4,00.0,37.0,29.9,21.8,-001.3,0014.78,0009.49,0008.95
2021-09-30 21:12:00,,0833.5,5.00,0.00,28.1,27.5,00.0,37.0,29.9,21.9,-001.4,0014.76,0009.50,0008.95
2021-09-30 21:13:00,,0833.5,4.99,0.00,28.1,27.5,00.0,37.0,30.0,22.0,-001.5,0014.80,0009.52,0008.93
2021-09-30 21:14:00,,0833.5,5.00,0.00,28.1,27.5,00.0,37.0,30.0,22.2,-001.6,0014.15,0009.52,0008.91
2021-09-30 21:15:00,,0833.6,5.00,0.00,28.1,27.5,00.0,37.0,30.0,22.0,-001.6,0013.89,0009.53,0008.90
2021-09-30 21:16:00,,0833.5,5.00,0.00,28.1,27.5,00.0,37.1,30.0,21.9,-001.7,0013.84,0009.52,0008.88
2021-09-30 21:17:00,,0833.5,4.99,0.00,28.1,27.5,00.0,37.1,30.0,21.9,-001.7,0013.92,0009.48,0008.87
2021-09-30 21:18:00,,0833.5,5.00,0.00,28.1,27.4,00.0,37.1,30.0,21.8,-001.7,0013.95,0009.46,0008.86
2021-09-30 21:19:00,,0833.5,5.00,0.00,28.1,27.4,00.0,37.1,29.9,21.9,-001.9,0014.11,0009.44,0008.83
2021-09-30 21:20:00,,0833.5,5.00,0.00,28.1,27.5,00.0,37.1,30.0,22.4,-001.8,0014.53,0009.42,0008.83
2021-09-30 21:21:00,,0833.5,4.99,0.00,28.1,27.4,00.0,37.1,29.9,22.2,-001.9,0014.38,0009.37,0008.81
2021-09-30 21:22:00,,0833.6,5.01,0.00,28.1,27.4,00.0,37.1,29.9,21.8,-001.9,0014.64,0009.36,0008.80
2021-09-30 21:23:00,,0833.5,5.00,0.00,28.1,27.4,00.0,37.1,29.9,21.9,-001.7,0014.81,0009.33,0008.78
2021-09-30 21:24:00,,0833.6,4.99,0.00,28.1,27.5,00.0,37.1,29.9,21.9,-001.5,0015.68,0009.32,0008.77
2021-09-30 21:25:00,,0833.6,5.01,0.00,28.2,27.5,00.0,37.2,30.0,21.9,-001.5,0015.70,0009.33,0008.78
2021-09-30 21:26:00,,0833.5,5.00,0.00,28.2,27.5,00.0,37.2,30.0,22.2,-001.3,0015.69,0009.32,0008.78
2021-09-30 21:27:00,,0833.6,4.99,0.00,28.2,27.5,00.0,37.2,30.0,21.9,-001.3,0015.72,0009.34,0008.79
2021-09-30 21:28:00,,0833.5,4.99,0.00,28.2,27.5,00.0,37.2,30.0,21.9,-001.2,0015.63,0009.37,0008.79
2021-09-30 21:29:00,,0833.5,5.00,0.00,28.2,27.5,00.0,37.2,30.0,21.8,-001.1,0015.66,0009.40,0008.80
2021-09-30 21:30:00,,0833.4,5.01,0.00,28.2,27.5,00.0,37.2,30.0,22.0,-001.0,0015.45,0009.38,0008.81
2021-09-30 21:31:00,,0833.5,5.00,0.00,28.2,27.5,00.0,37.2,30.0,21.4,-000.9,0014.81,0009.31,0008.77
2021-09-30 21:32:00,,0833.4,5.00,0.00,28.2,27.5,00.0,37.2,30.0,21.3,-000.7,0014.70,0009.26,0008.72
2021-09-30 21:33:00,,0833.4,4.99,0.00,28.2,27.5,00.0,37.2,30.0,21.3,-000.6,0014.33,0009.19,0008.66
2021-09-30 21:34:00,,0833.4,5.01,0.00,28.2,27.5,00.0,37.2,30.0,21.3,-000.6,0013.96,0009.11,0008.60
2021-09-30 21:35:00,,0833.4,5.01,0.00,28.2,27.5,00.0,37.2,30.0,21.5,-000.7,0012.90,0009.01,0008.53
2021-09-30 21:36:00,,0833.4,4.99,0.00,28.2,27.5,00.0,37.3,30.0,21.7,-000.8,0013.08,0008.93,0008.46
2021-09-30 21:37:00,,0833.4,5.00,0.00,28.2,27.5,00.0,37.3,30.0,21.6,-000.9,0013.29,0008.89,0008.41
2021-09-30 21:38:00,,0833.5,5.01,0.00,28.2,27.5,00.0,37.3,30.0,21.5,-000.9,0013.09,0008.81,0008.37
2021-09-30 21:39:00,,0833.4,5.00,0.00,28.2,27.5,00.0,37.3,30.0,21.5,-000.9,0013.05,0008.77,0008.35
2021-09-30 21:40:00,,0833.4,5.00,0.00,28.2,27.5,00.0,37.3,30.0,21.6,-001.1,0013.27,0008.70,0008.30
2021-09-30 21:41:00,,0833.4,5.00,0.00,28.2,27.5,00.0,37.3,30.0,21.6,-001.1,0013.20,0008.66,0008.26
2021-09-30 21:42:00,,0833.4,5.01,0.00,28.2,27.6,00.0,37.3,30.1,21.5,-001.3,0013.21,0008.64,0008.25
2021-09-30 21:43:00,,0833.4,5.00,0.00,28.2,27.6,00.0,37.3,30.1,21.5,-001.5,0013.26,0008.65,0008.25
2021-09-30 21:44:00,,0833.4,4.99,0.00,28.3,27.6,00.0,37.3,30.1,21.7,-001.7,0013.24,0008.64,0008.26
2021-09-30 21:45:00,,0833.5,5.01,0.00,28.3,27.6,00.0,37.3,30.1,21.4,-001.6,0013.27,0008.65,0008.27
2021-09-30 21:46:00,,0833.4,5.01,0.00,28.3,27.6,00.0,37.3,30.2,21.4,-001.7,0013.29,0008.67,0008.27
2021-09-30 21:47:00,,0833.4,4.99,0.00,28.3,27.6,00.0,37.3,30.2,21.6,-001.7,0012.90,0008.64,0008.26
2021-09-30 21:48:00,,0833.4,5.00,0.00,28.3,27.7,00.0,37.3,30.2,21.8,-001.7,0012.68,0008.60,0008.25
2021-09-30 21:49:00,,0833.5,5.01,0.00,28.4,27.7,00.0,37.3,30.2,21.6,-001.7,0012.71,0008.60,0008.22
2021-09-30 21:50:00,,0833.5,4.99,0.00,28.4,27.7,00.0,37.4,30.2,21.5,-001.6,0012.57,0008.55,0008.18
2021-09-30 21:51:00,,0833.4,5.01,0.00,28.4,27.7,00.0,37.4,30.2,21.5,-001.6,0012.30,0008.52,0008.15
2021-09-30 21:52:00,,0833.5,5.00,0.00,28.4,27.7,00.0,37.4,30.2,21.4,-001.7,0012.23,0008.48,0008.14
2021-09-30 21:53:00,,0833.4,5.00,0.00,28.3,27.6,00.0,37.4,30.1,21.6,-001.8,0012.21,0008.46,0008.11
2021-09-30 21:54:00,,0833.4,4.99,0.00,28.3,27.6,00.0,37.4,30.1,21.9,-001.9,0012.23,0008.47,0008.09
2021-09-30 21:55:00,,0833.4,5.00,0.00,28.3,27.6,00.0,37.4,30.1,21.8,-001.8,0012.25,0008.49,0008.11
2021-09-30 21:56:00,,0833.4,5.00,0.00,28.4,27.7,00.0,37.4,30.2,21.7,-002.0,0012.30,0008.52,0008.13
2021-09-30 21:57:00,,0833.5,5.00,0.00,28.4,27.7,00.0,37.4,30.2,21.8,-001.9,0012.30,0008.55,0008.16
2021-09-30 21:58:00,,0833.5,5.00,0.00,28.4,27.7,00.0,37.4,30.3,21.8,-001.9,0012.35,0008.59,0008.18
2021-09-30 21:59:00,,0833.5,4.99,0.00,28.4,27.8,00.0,37.4,30.3,21.7,-001.8,0012.54,0008.62,0008.18
